FENGYUN 1C DEB, 30263

Orbit data source: Space-Track

FENGYUN 1C DEB, 30263 is space debris in SSO originally from a launch on Mon, 10 May 1999 UTC launched from the Taiyaun Space Center, China (TSC). Fengyun 1C debris stems from the Chinese weather satellite Fengyun-1C, which was intentionally destroyed by a Chinese anti-satellite missile in 2007. This event dramatically increased the amount of space debris, with thousands of trackable fragments posing hazards to satellites and human spaceflight. The Fengyun 1C debris cloud has become a focal point in discussions about space sustainability and the need for international regulations to prevent the creation of new debris.

Loading next visibility...
Identifier
30263, 1999-025XY
Orbit
SSO
Country
Flag of CNCN / PRC
Related business
Manufacturer
Unknown
Mission
Spacecraft
Bus & Motor
Unknown
Mass
Unknown
Launch date (UTC)
1999-05-10 (27 years ago)
Launch vehicle
Unknown
Launch site
Taiyaun Space Center, China (TSC)
Object type
Payload
Rocket body
Debris
Shape & HBR
Unknown shape, 0.1 m
Radar Cross Section
Small (<0.1 m²)

Expand to show TLE details & history
Last TLE update: 14 hours ago

TLE from 14 hours ago
0 FENGYUN 1C DEB
1 30263U 99025XY  26123.80295432  .00000956  00000-0  59886-3 0  9995
2 30263  98.9397 241.1551 0143774 326.1477 186.5796 14.02033047980155
Epoch: 2026-05-03T19:16Z
TLE epoch observation values (Epoch: 2026-05-03T19:16:15.253Z)
Latitude
27.13513°
Longitude
-85.00952°
Altitude
993.85 km
Speed
7.304 km/s
True Right ascension
04h 23m 01s
True Declination
27° 00' 01"
Sunlit
Object was in daylight at epoch
Visualization orbit readout
Latitude
Unknown
Longitude
Unknown
Altitude
Unknown
Speed
Unknown
Apparent Right ascension
Unknown
Apparent Declination
Unknown
Sunlit
N/A
Visualization observer readout
Local Sidereal Time
17:26:30
Azimuth
Unknown
Elevation
Unknown
Doppler factor
Unknown
Orbital elements
Apogee altitude
988.366 km
Perigee altitude
779.546 km
Semi-major axis
7,262.093 km
Eccentricity
0.01438
Inclination
98.9397°
RAAN
241.1551°
Arg. of periapsis
326.1477°
True anomaly
186.39413°
Mean anomaly
186.5796°
Eccentric anomaly
186.48654°
Mean motion
3.50712 °/min
Orbital period
102.65 mins
BSTAR
0.00059886
Loading maneuver chart data...
Computing Atmospheric mass density...

Documentation

Showing up to 5 results
|